Time,TemperatureF,DewpointF,PressureIn,WindDirection,WindDirectionDegrees,WindSpeedMPH,WindSpeedGustMPH,Humidity,HourlyPrecipIn,Conditions,Clouds,dailyrainin,SolarRadiationWatts/m^2,SoftwareType,DateUTC
2013-05-20 00:01:00,64.0,62.2,29.45,East,86,4.0,4.0,94,0.00,,---,0.39,0.00,VWS V14.00,2013-05-20 05:01:00,
2013-05-20 00:06:00,64.0,61.9,29.46,East,93,2.0,3.0,93,0.00,,---,0.00,0.00,VWS V14.00,2013-05-20 05:06:00,
2013-05-20 00:11:00,63.9,61.8,29.46,East,88,2.0,2.0,93,0.00,,---,0.01,0.00,VWS V14.00,2013-05-20 05:11:00,
2013-05-20 00:16:00,63.9,61.8,29.46,ENE,73,3.0,3.0,93,0.00,,---,0.01,0.00,VWS V14.00,2013-05-20 05:16:00,
2013-05-20 00:21:00,63.7,61.6,29.45,East,96,2.0,2.0,93,0.00,,---,0.01,0.00,VWS V14.00,2013-05-20 05:21:00,
2013-05-20 00:26:00,63.7,61.6,29.45,ENE,64,4.0,4.0,93,0.00,,---,0.01,0.00,VWS V14.00,2013-05-20 05:26:00,
2013-05-20 00:31:00,63.7,61.6,29.45,ESE,104,1.0,2.0,93,0.00,,---,0.01,0.00,VWS V14.00,2013-05-20 05:31:00,
2013-05-20 00:36:00,63.5,61.4,29.45,ESE,112,1.0,1.0,93,0.00,,---,0.01,0.00,VWS V14.00,2013-05-20 05:36:00,
2013-05-20 00:41:00,63.5,61.4,29.45,East,99,1.0,2.0,93,0.00,,---,0.01,0.00,VWS V14.00,2013-05-20 05:41:00,
2013-05-20 00:46:00,63.4,61.3,29.45,East,99,1.0,1.0,93,0.00,,---,0.01,0.00,VWS V14.00,2013-05-20 05:46:00,
2013-05-20 00:51:00,63.4,61.3,29.45,ESE,116,1.0,1.0,93,0.00,,---,0.01,0.00,VWS V14.00,2013-05-20 05:51:00,
2013-05-20 00:56:00,63.4,61.3,29.45,ENE,78,1.0,1.0,93,0.00,,---,0.01,0.00,VWS V14.00,2013-05-20 05:56:00,
2013-05-20 01:01:00,63.4,61.3,29.45,ENE,58,2.0,2.0,93,0.00,,---,0.02,0.00,VWS V14.00,2013-05-20 06:01:00,
2013-05-20 01:06:00,63.4,61.3,29.45,ENE,58,0.0,0.0,93,0.00,,---,0.02,0.00,VWS V14.00,2013-05-20 06:06:00,
2013-05-20 01:11:00,63.2,61.2,29.45,ENE,58,0.0,1.0,93,0.00,,---,0.02,0.00,VWS V14.00,2013-05-20 06:11:00,
2013-05-20 01:16:00,63.2,61.2,29.45,ENE,58,1.0,1.0,93,0.00,,---,0.02,0.00,VWS V14.00,2013-05-20 06:16:00,
2013-05-20 01:21:00,63.1,61.0,29.44,ENE,59,2.0,2.0,93,0.00,,---,0.02,0.00,VWS V14.00,2013-05-20 06:21:00,
2013-05-20 01:26:00,63.1,61.0,29.44,ENE,59,0.0,0.0,93,0.00,,---,0.02,0.00,VWS V14.00,2013-05-20 06:26:00,
2013-05-20 01:31:00,63.1,61.0,29.44,ENE,59,2.0,2.0,93,0.00,,---,0.02,0.00,VWS V14.00,2013-05-20 06:31:00,
2013-05-20 01:36:00,62.9,60.8,29.43,ENE,61,0.0,1.0,93,0.00,,---,0.02,0.00,VWS V14.00,2013-05-20 06:36:00,
2013-05-20 01:41:00,62.9,61.2,29.43,East,95,1.0,1.0,94,0.00,,---,0.02,0.00,VWS V14.00,2013-05-20 06:41:00,
2013-05-20 01:46:00,62.9,61.2,29.43,East,93,1.0,2.0,94,0.00,,---,0.02,0.00,VWS V14.00,2013-05-20 06:46:00,
2013-05-20 01:51:00,62.9,61.2,29.43,ESE,121,2.0,2.0,94,0.00,,---,0.02,0.00,VWS V14.00,2013-05-20 06:51:00,
2013-05-20 01:56:00,62.9,61.2,29.43,ESE,120,1.0,1.0,94,0.00,,---,0.02,0.00,VWS V14.00,2013-05-20 06:56:00,
2013-05-20 02:01:00,62.9,61.2,29.43,ESE,117,1.0,2.0,94,0.00,,---,0.02,0.00,VWS V14.00,2013-05-20 07:01:00,
2013-05-20 02:06:00,62.9,61.2,29.43,ESE,109,1.0,1.0,94,0.00,,---,0.02,0.00,VWS V14.00,2013-05-20 07:06:00,
2013-05-20 02:11:00,62.7,61.0,29.43,East,95,1.0,1.0,94,0.00,,---,0.02,0.00,VWS V14.00,2013-05-20 07:11:00,
2013-05-20 02:16:00,62.7,61.0,29.43,ESE,117,1.0,1.0,94,0.00,,---,0.02,0.00,VWS V14.00,2013-05-20 07:16:00,
2013-05-20 02:21:00,62.7,61.0,29.42,ESE,123,1.0,1.0,94,0.00,,---,0.02,0.00,VWS V14.00,2013-05-20 07:21:00,
2013-05-20 02:26:00,62.7,61.0,29.42,ESE,120,1.0,1.0,94,0.00,,---,0.02,0.00,VWS V14.00,2013-05-20 07:26:00,
2013-05-20 02:31:00,62.7,61.0,29.42,East,100,3.0,4.0,94,0.00,,---,0.02,0.00,VWS V14.00,2013-05-20 07:31:00,
2013-05-20 02:36:00,62.7,61.0,29.42,ESE,116,3.0,3.0,94,0.00,,---,0.03,0.00,VWS V14.00,2013-05-20 07:36:00,
2013-05-20 02:41:00,62.7,61.0,29.42,SE,130,1.0,1.0,94,0.00,,---,0.03,0.00,VWS V14.00,2013-05-20 07:41:00,
2013-05-20 02:46:00,62.7,61.0,29.42,SE,141,1.0,1.0,94,0.00,,---,0.03,0.00,VWS V14.00,2013-05-20 07:46:00,
2013-05-20 02:51:00,62.7,61.0,29.43,SSE,160,2.0,2.0,94,0.00,,---,0.03,0.00,VWS V14.00,2013-05-20 07:51:00,
2013-05-20 02:56:00,62.7,61.0,29.43,SSE,152,1.0,1.0,94,0.00,,---,0.03,0.00,VWS V14.00,2013-05-20 07:56:00,
2013-05-20 03:01:00,62.6,60.8,29.43,SE,138,3.0,4.0,94,0.00,,---,0.03,0.00,VWS V14.00,2013-05-20 08:01:00,
2013-05-20 03:06:00,62.6,60.8,29.43,SE,136,1.0,1.0,94,0.00,,---,0.03,0.00,VWS V14.00,2013-05-20 08:06:00,
2013-05-20 03:11:00,62.4,60.7,29.43,SSE,154,2.0,3.0,94,0.00,,---,0.04,0.00,VWS V14.00,2013-05-20 08:11:00,
2013-05-20 03:16:00,62.4,60.7,29.43,ESE,119,1.0,1.0,94,0.00,,---,0.04,0.00,VWS V14.00,2013-05-20 08:16:00,
2013-05-20 03:21:00,62.4,60.7,29.43,East,97,6.0,6.0,94,0.00,,---,0.04,0.00,VWS V14.00,2013-05-20 08:21:00,
2013-05-20 03:26:00,62.3,60.6,29.43,SE,141,1.0,1.0,94,0.00,,---,0.04,0.00,VWS V14.00,2013-05-20 08:26:00,
2013-05-20 03:31:00,62.3,60.6,29.43,ESE,114,1.0,1.0,94,0.00,,---,0.04,0.00,VWS V14.00,2013-05-20 08:31:00,
2013-05-20 03:36:00,62.3,60.6,29.42,East,95,0.0,0.0,94,0.00,,---,0.04,0.00,VWS V14.00,2013-05-20 08:36:00,
2013-05-20 03:41:00,62.1,60.4,29.42,SSE,147,0.0,0.0,94,0.00,,---,0.04,0.00,VWS V14.00,2013-05-20 08:41:00,
2013-05-20 03:46:00,62.1,60.4,29.42,SE,127,2.0,2.0,94,0.00,,---,0.04,0.00,VWS V14.00,2013-05-20 08:46:00,
2013-05-20 03:51:00,62.1,60.4,29.42,ESE,104,2.0,2.0,94,0.00,,---,0.04,0.00,VWS V14.00,2013-05-20 08:51:00,
2013-05-20 03:56:00,62.1,60.4,29.42,ESE,114,2.0,2.0,94,0.00,,---,0.04,0.00,VWS V14.00,2013-05-20 08:56:00,
2013-05-20 04:01:00,62.1,60.4,29.42,ESE,114,1.0,1.0,94,0.00,,---,0.04,0.00,VWS V14.00,2013-05-20 09:01:00,
2013-05-20 04:06:00,62.0,60.3,29.41,ESE,102,1.0,1.0,94,0.00,,---,0.04,0.00,VWS V14.00,2013-05-20 09:06:00,
2013-05-20 04:11:00,62.0,60.3,29.41,East,92,1.0,1.0,94,0.00,,---,0.04,0.00,VWS V14.00,2013-05-20 09:11:00,
2013-05-20 04:16:00,62.0,60.3,29.41,East,82,1.0,1.0,94,0.00,,---,0.04,0.00,VWS V14.00,2013-05-20 09:16:00,
2013-05-20 04:21:00,62.0,60.3,29.40,East,99,1.0,1.0,94,0.00,,---,0.04,0.00,VWS V14.00,2013-05-20 09:21:00,
2013-05-20 04:26:00,62.0,60.3,29.40,ESE,112,2.0,2.0,94,0.00,,---,0.04,0.00,VWS V14.00,2013-05-20 09:26:00,
2013-05-20 04:31:00,62.0,60.3,29.40,ESE,117,1.0,1.0,94,0.00,,---,0.04,0.00,VWS V14.00,2013-05-20 09:31:00,
2013-05-20 04:35:00,62.0,60.3,29.40,ENE,72,1.0,1.0,94,0.00,,---,0.04,0.00,VWS V14.00,2013-05-20 09:35:00,
2013-05-20 04:40:00,62.0,60.3,29.40,East,93,1.0,1.0,94,0.00,,---,0.04,0.00,VWS V14.00,2013-05-20 09:40:00,
2013-05-20 04:45:00,62.0,60.3,29.40,SE,126,2.0,2.0,94,0.00,,---,0.04,0.00,VWS V14.00,2013-05-20 09:45:00,
2013-05-20 04:50:00,62.0,60.3,29.41,ESE,112,2.0,2.0,94,0.00,,---,0.04,0.00,VWS V14.00,2013-05-20 09:50:00,
2013-05-20 04:55:00,62.0,60.3,29.41,ESE,114,2.0,2.0,94,0.00,,---,0.04,0.00,VWS V14.00,2013-05-20 09:55:00,
2013-05-20 05:00:00,62.0,60.3,29.41,ESE,110,2.0,2.0,94,0.00,,---,0.04,0.00,VWS V14.00,2013-05-20 10:00:00,
2013-05-20 05:05:00,62.0,60.3,29.40,East,100,1.0,1.0,94,0.00,,---,0.04,0.00,VWS V14.00,2013-05-20 10:05:00,
2013-05-20 05:10:00,62.0,60.3,29.40,SE,127,2.0,2.0,94,0.00,,---,0.04,0.00,VWS V14.00,2013-05-20 10:10:00,
2013-05-20 05:15:00,62.0,60.3,29.40,ESE,117,0.0,0.0,94,0.00,,---,0.04,0.00,VWS V14.00,2013-05-20 10:15:00,
2013-05-20 05:20:00,62.0,60.3,29.40,SE,124,2.0,2.0,94,0.00,,---,0.04,0.00,VWS V14.00,2013-05-20 10:20:00,
2013-05-20 05:25:00,62.0,60.3,29.40,ESE,112,1.0,1.0,94,0.00,,---,0.04,0.00,VWS V14.00,2013-05-20 10:25:00,
2013-05-20 05:30:00,62.0,60.3,29.40,ESE,106,0.0,0.0,94,0.00,,---,0.04,0.00,VWS V14.00,2013-05-20 10:30:00,
2013-05-20 05:35:00,62.0,60.3,29.41,ESE,121,0.0,1.0,94,0.00,,---,0.04,0.00,VWS V14.00,2013-05-20 10:35:00,
2013-05-20 05:40:00,62.0,60.3,29.41,ESE,121,3.0,3.0,94,0.00,,---,0.04,0.00,VWS V14.00,2013-05-20 10:40:00,
2013-05-20 05:45:00,62.0,60.3,29.41,SE,124,3.0,3.0,94,0.00,,---,0.04,0.00,VWS V14.00,2013-05-20 10:45:00,
2013-05-20 05:50:00,62.1,60.4,29.42,SE,124,3.0,3.0,94,0.00,,---,0.04,0.00,VWS V14.00,2013-05-20 10:50:00,
2013-05-20 05:55:00,62.1,60.4,29.42,SE,130,5.0,5.0,94,0.00,,---,0.04,0.00,VWS V14.00,2013-05-20 10:55:00,
2013-05-20 06:00:00,62.1,60.4,29.42,SE,130,2.0,2.0,94,0.00,,---,0.04,0.00,VWS V14.00,2013-05-20 11:00:00,
2013-05-20 06:05:00,62.0,60.3,29.42,SE,124,1.0,1.0,94,0.00,,---,0.04,0.00,VWS V14.00,2013-05-20 11:05:00,
2013-05-20 06:10:00,62.0,60.3,29.42,SE,134,5.0,11.0,94,0.00,,---,0.04,0.00,VWS V14.00,2013-05-20 11:10:00,
2013-05-20 06:15:00,62.0,60.3,29.42,SE,134,2.0,2.0,94,0.00,,---,0.04,0.00,VWS V14.00,2013-05-20 11:15:00,
2013-05-20 06:20:00,62.0,60.3,29.43,NE,56,3.0,3.0,94,0.00,,---,0.04,0.00,VWS V14.00,2013-05-20 11:20:00,
2013-05-20 06:25:00,62.0,60.3,29.43,ESE,116,3.0,3.0,94,0.00,,---,0.04,0.00,VWS V14.00,2013-05-20 11:25:00,
2013-05-20 06:30:00,62.0,60.3,29.43,SSE,151,6.0,6.0,94,0.00,,---,0.04,0.00,VWS V14.00,2013-05-20 11:30:00,
2013-05-20 06:35:00,62.1,60.4,29.43,SE,124,5.0,6.0,94,0.00,,---,0.04,0.00,VWS V14.00,2013-05-20 11:35:00,
2013-05-20 06:40:00,62.1,60.4,29.43,SSE,154,1.0,3.0,94,0.00,,---,0.04,12.00,VWS V14.00,2013-05-20 11:40:00,
2013-05-20 06:45:00,62.1,60.4,29.43,SE,141,2.0,4.0,94,0.00,,---,0.04,18.00,VWS V14.00,2013-05-20 11:45:00,
2013-05-20 06:50:00,62.1,60.4,29.43,SE,136,1.0,1.0,94,0.00,,---,0.04,21.00,VWS V14.00,2013-05-20 11:50:00,
2013-05-20 06:55:00,62.1,60.4,29.43,SE,145,2.0,3.0,94,0.00,,---,0.04,26.00,VWS V14.00,2013-05-20 11:55:00,
2013-05-20 07:00:00,62.3,60.6,29.43,ESE,113,1.0,5.0,94,0.00,,---,0.04,26.00,VWS V14.00,2013-05-20 12:00:00,
2013-05-20 07:05:00,62.3,60.6,29.42,SE,138,2.0,2.0,94,0.00,,---,0.04,55.00,VWS V14.00,2013-05-20 12:05:00,
2013-05-20 07:10:00,62.3,60.6,29.42,SSE,150,1.0,1.0,94,0.00,,---,0.04,35.00,VWS V14.00,2013-05-20 12:10:00,
2013-05-20 07:15:00,62.3,60.6,29.42,East,79,2.0,2.0,94,0.00,,---,0.04,35.00,VWS V14.00,2013-05-20 12:15:00,
2013-05-20 07:20:00,62.3,60.6,29.43,SSE,162,3.0,3.0,94,0.00,,---,0.04,35.00,VWS V14.00,2013-05-20 12:20:00,
2013-05-20 07:25:00,62.3,60.6,29.43,SE,131,3.0,3.0,94,0.00,,---,0.04,53.00,VWS V14.00,2013-05-20 12:25:00,
2013-05-20 07:30:00,62.3,60.6,29.43,SE,144,6.0,6.0,94,0.00,,---,0.04,53.00,VWS V14.00,2013-05-20 12:30:00,
2013-05-20 07:35:00,62.3,60.6,29.43,SE,143,4.0,4.0,94,0.00,,---,0.04,53.00,VWS V14.00,2013-05-20 12:35:00,
2013-05-20 07:40:00,62.3,60.6,29.43,SSE,154,7.0,7.0,94,0.00,,---,0.04,53.00,VWS V14.00,2013-05-20 12:40:00,
2013-05-20 07:45:00,62.3,60.6,29.43,SE,141,4.0,4.0,94,0.00,,---,0.04,53.00,VWS V14.00,2013-05-20 12:45:00,
2013-05-20 07:50:00,62.3,60.6,29.43,SSE,151,3.0,3.0,94,0.00,,---,0.04,53.00,VWS V14.00,2013-05-20 12:50:00,
2013-05-20 07:55:00,62.3,60.6,29.43,SSE,147,6.0,6.0,94,0.00,,---,0.04,53.00,VWS V14.00,2013-05-20 12:55:00,
2013-05-20 08:00:00,62.3,60.6,29.43,ESE,120,2.0,2.0,94,0.00,,---,0.04,53.00,VWS V14.00,2013-05-20 13:00:00,
2013-05-20 08:05:00,62.4,60.7,29.43,SSE,151,3.0,3.0,94,0.00,,---,0.04,53.00,VWS V14.00,2013-05-20 13:05:00,
2013-05-20 08:10:00,62.6,60.2,29.43,ESE,123,1.0,5.0,92,0.00,,---,0.04,53.00,VWS V14.00,2013-05-20 13:10:00,
2013-05-20 08:15:00,62.7,60.3,29.43,South,191,3.0,3.0,92,0.00,,---,0.04,53.00,VWS V14.00,2013-05-20 13:15:00,
2013-05-20 08:20:00,62.9,60.5,29.43,ESE,113,2.0,2.0,92,0.00,,---,0.04,199.00,VWS V14.00,2013-05-20 13:20:00,
2013-05-20 08:25:00,63.1,60.7,29.43,South,172,5.0,5.0,92,0.00,,---,0.04,199.00,VWS V14.00,2013-05-20 13:25:00,
2013-05-20 08:30:00,63.1,60.7,29.43,South,186,3.0,3.0,92,0.00,,---,0.04,199.00,VWS V14.00,2013-05-20 13:30:00,
2013-05-20 08:35:00,63.7,60.4,29.43,SSW,198,3.0,3.0,89,0.00,,---,0.04,185.00,VWS V14.00,2013-05-20 13:35:00,
2013-05-20 08:40:00,63.7,60.4,29.43,ESE,123,1.0,1.0,89,0.00,,---,0.04,185.00,VWS V14.00,2013-05-20 13:40:00,
2013-05-20 08:45:00,63.9,60.6,29.43,SE,143,5.0,5.0,89,0.00,,---,0.04,185.00,VWS V14.00,2013-05-20 13:45:00,
2013-05-20 08:50:00,63.9,60.6,29.43,WSW,246,6.0,6.0,89,0.00,,---,0.04,565.00,VWS V14.00,2013-05-20 13:50:00,
2013-05-20 08:55:00,64.5,61.2,29.43,SSE,165,6.0,6.0,89,0.00,,---,0.04,565.00,VWS V14.00,2013-05-20 13:55:00,
2013-05-20 09:00:00,64.7,61.4,29.43,ESE,117,0.0,0.0,89,0.00,,---,0.04,565.00,VWS V14.00,2013-05-20 14:00:00,
2013-05-20 09:05:00,65.2,61.9,29.43,SSW,198,11.0,11.0,89,0.00,,---,0.04,565.00,VWS V14.00,2013-05-20 14:05:00,
2013-05-20 09:10:00,65.3,62.0,29.43,SSW,208,2.0,2.0,89,0.00,,---,0.04,565.00,VWS V14.00,2013-05-20 14:10:00,
2013-05-20 09:15:00,66.3,63.0,29.43,East,89,0.0,0.0,89,0.00,,---,0.04,565.00,VWS V14.00,2013-05-20 14:15:00,
2013-05-20 09:20:00,66.3,58.5,29.43,SSW,193,3.0,3.0,76,0.00,,---,0.04,565.00,VWS V14.00,2013-05-20 14:20:00,
2013-05-20 09:25:00,66.9,59.1,29.43,SSW,208,5.0,7.0,76,0.00,,---,0.04,565.00,VWS V14.00,2013-05-20 14:25:00,
2013-05-20 09:30:00,66.9,59.1,29.43,ESE,117,0.0,0.0,76,0.00,,---,0.04,565.00,VWS V14.00,2013-05-20 14:30:00,
2013-05-20 09:35:00,66.9,59.1,29.43,SW,217,16.0,16.0,76,0.00,,---,0.04,565.00,VWS V14.00,2013-05-20 14:35:00,
2013-05-20 09:40:00,66.9,59.1,29.43,WSW,256,1.0,1.0,76,0.00,,---,0.04,565.00,VWS V14.00,2013-05-20 14:40:00,
2013-05-20 09:45:00,67.8,60.0,29.43,SE,145,1.0,1.0,76,0.00,,---,0.04,565.00,VWS V14.00,2013-05-20 14:45:00,
2013-05-20 09:50:00,68.3,60.5,29.43,SSW,199,7.0,7.0,76,0.00,,---,0.04,565.00,VWS V14.00,2013-05-20 14:50:00,
2013-05-20 09:55:00,68.3,60.5,29.43,South,182,2.0,2.0,76,0.00,,---,0.04,565.00,VWS V14.00,2013-05-20 14:55:00,
2013-05-20 10:00:00,69.1,57.3,29.43,ESE,104,5.0,5.0,66,0.00,,---,0.04,565.00,VWS V14.00,2013-05-20 15:00:00,
2013-05-20 10:05:00,69.1,57.3,29.43,South,171,2.0,2.0,66,0.00,,---,0.04,565.00,VWS V14.00,2013-05-20 15:05:00,
2013-05-20 10:10:00,69.1,57.3,29.43,SSE,150,1.0,1.0,66,0.00,,---,0.04,185.00,VWS V14.00,2013-05-20 15:10:00,
2013-05-20 10:15:00,69.9,58.0,29.43,SE,131,3.0,4.0,66,0.00,,---,0.04,185.00,VWS V14.00,2013-05-20 15:15:00,
2013-05-20 10:20:00,70.1,56.5,29.42,SSE,167,5.0,5.0,62,0.00,,---,0.04,185.00,VWS V14.00,2013-05-20 15:20:00,
2013-05-20 10:25:00,70.1,56.5,29.42,SE,130,1.0,1.0,62,0.00,,---,0.04,185.00,VWS V14.00,2013-05-20 15:25:00,
2013-05-20 10:30:00,70.1,56.5,29.42,SSW,202,2.0,2.0,62,0.00,,---,0.04,185.00,VWS V14.00,2013-05-20 15:30:00,
2013-05-20 10:35:00,70.4,57.2,29.42,SE,128,3.0,3.0,63,0.00,,---,0.04,185.00,VWS V14.00,2013-05-20 15:35:00,
2013-05-20 10:40:00,70.8,57.2,29.42,SSE,148,2.0,7.0,62,0.00,,---,0.04,841.00,VWS V14.00,2013-05-20 15:40:00,
2013-05-20 10:45:00,70.6,57.0,29.42,South,188,3.0,6.0,62,0.00,,---,0.04,336.00,VWS V14.00,2013-05-20 15:45:00,
2013-05-20 10:50:00,70.8,57.2,29.41,SSE,155,3.0,3.0,62,0.00,,---,0.04,336.00,VWS V14.00,2013-05-20 15:50:00,
2013-05-20 10:55:00,70.8,57.2,29.41,ESE,107,2.0,2.0,62,0.00,,---,0.04,336.00,VWS V14.00,2013-05-20 15:55:00,
2013-05-20 11:00:00,70.9,57.2,29.41,SW,217,1.0,5.0,62,0.00,,---,0.04,336.00,VWS V14.00,2013-05-20 16:00:00,
2013-05-20 11:05:00,71.1,57.4,29.41,SE,128,6.0,6.0,62,0.00,,---,0.04,336.00,VWS V14.00,2013-05-20 16:05:00,
2013-05-20 11:10:00,71.3,57.6,29.41,SE,131,6.0,6.0,62,0.00,,---,0.04,336.00,VWS V14.00,2013-05-20 16:10:00,
2013-05-20 11:15:00,71.1,57.4,29.41,SE,130,9.0,9.0,62,0.00,,---,0.04,336.00,VWS V14.00,2013-05-20 16:15:00,
2013-05-20 11:20:00,70.4,56.8,29.41,WSW,253,3.0,3.0,62,0.00,,---,0.04,336.00,VWS V14.00,2013-05-20 16:20:00,
2013-05-20 11:25:00,70.3,56.7,29.41,SE,128,2.0,3.0,62,0.00,,---,0.04,336.00,VWS V14.00,2013-05-20 16:25:00,
2013-05-20 11:30:00,70.3,56.7,29.41,ESE,123,6.0,6.0,62,0.00,,---,0.04,336.00,VWS V14.00,2013-05-20 16:30:00,
2013-05-20 11:35:00,70.1,56.5,29.42,SSE,164,3.0,3.0,62,0.00,,---,0.04,336.00,VWS V14.00,2013-05-20 16:35:00,
2013-05-20 11:40:00,70.4,56.8,29.42,SE,127,6.0,6.0,62,0.00,,---,0.04,336.00,VWS V14.00,2013-05-20 16:40:00,
2013-05-20 11:45:00,70.6,57.0,29.42,ESE,113,14.0,14.0,62,0.00,,---,0.04,336.00,VWS V14.00,2013-05-20 16:45:00,
2013-05-20 11:50:00,70.6,57.0,29.42,SSE,160,4.0,4.0,62,0.00,,---,0.04,336.00,VWS V14.00,2013-05-20 16:50:00,
2013-05-20 11:55:00,69.9,56.3,29.42,ESE,120,5.0,6.0,62,0.00,,---,0.04,336.00,VWS V14.00,2013-05-20 16:55:00,
2013-05-20 12:00:00,69.9,56.3,29.42,South,169,2.0,10.0,62,0.00,,---,0.04,336.00,VWS V14.00,2013-05-20 17:00:00,
2013-05-20 12:05:00,70.3,56.7,29.41,SE,136,6.0,7.0,62,0.00,,---,0.04,336.00,VWS V14.00,2013-05-20 17:05:00,
2013-05-20 12:10:00,70.3,57.1,29.41,SE,130,5.0,5.0,63,0.00,,---,0.04,428.00,VWS V14.00,2013-05-20 17:10:00,
2013-05-20 12:15:00,70.6,57.4,29.41,WSW,240,2.0,6.0,63,0.00,,---,0.04,428.00,VWS V14.00,2013-05-20 17:15:00,
2013-05-20 12:20:00,70.8,57.6,29.41,ENE,73,1.0,1.0,63,0.00,,---,0.04,428.00,VWS V14.00,2013-05-20 17:20:00,
2013-05-20 12:25:00,70.9,57.2,29.41,SW,219,5.0,8.0,62,0.00,,---,0.04,428.00,VWS V14.00,2013-05-20 17:25:00,
2013-05-20 12:30:00,70.9,57.2,29.41,South,184,3.0,3.0,62,0.00,,---,0.04,428.00,VWS V14.00,2013-05-20 17:30:00,
2013-05-20 12:35:00,70.8,57.2,29.42,SSE,152,6.0,8.0,62,0.00,,---,0.04,428.00,VWS V14.00,2013-05-20 17:35:00,
2013-05-20 12:40:00,70.8,57.2,29.42,SE,144,4.0,4.0,62,0.00,,---,0.04,428.00,VWS V14.00,2013-05-20 17:40:00,
2013-05-20 12:45:00,71.3,57.6,29.42,SSE,162,6.0,6.0,62,0.00,,---,0.04,428.00,VWS V14.00,2013-05-20 17:45:00,
2013-05-20 12:50:00,71.3,57.6,29.41,SW,217,1.0,7.0,62,0.00,,---,0.04,428.00,VWS V14.00,2013-05-20 17:50:00,
2013-05-20 12:55:00,70.9,57.2,29.41,SE,137,3.0,3.0,62,0.00,,---,0.04,428.00,VWS V14.00,2013-05-20 17:55:00,
2013-05-20 13:00:00,70.9,57.2,29.41,SSW,192,5.0,5.0,62,0.00,,---,0.04,428.00,VWS V14.00,2013-05-20 18:00:00,
2013-05-20 13:05:00,70.6,57.0,29.41,SSE,151,5.0,7.0,62,0.00,,---,0.04,428.00,VWS V14.00,2013-05-20 18:05:00,
2013-05-20 13:10:00,70.4,56.3,29.41,SSW,195,8.0,8.0,61,0.00,,---,0.04,428.00,VWS V14.00,2013-05-20 18:10:00,
2013-05-20 13:15:00,69.6,57.3,29.41,SW,219,10.0,10.0,65,0.00,,---,0.04,428.00,VWS V14.00,2013-05-20 18:15:00,
2013-05-20 13:20:00,69.6,57.3,29.42,SSW,209,11.0,11.0,65,0.00,,---,0.04,148.00,VWS V14.00,2013-05-20 18:20:00,
2013-05-20 13:25:00,67.9,55.7,29.42,SSE,154,1.0,5.0,65,0.00,,---,0.04,255.00,VWS V14.00,2013-05-20 18:25:00,
2013-05-20 13:30:00,66.9,54.8,29.42,SE,130,2.0,2.0,65,0.00,,---,0.04,255.00,VWS V14.00,2013-05-20 18:30:00,
2013-05-20 13:35:00,66.4,54.3,29.42,ESE,112,5.0,5.0,65,0.00,,---,0.04,255.00,VWS V14.00,2013-05-20 18:35:00,
2013-05-20 13:40:00,66.0,53.9,29.42,ESE,119,3.0,3.0,65,0.00,,---,0.04,255.00,VWS V14.00,2013-05-20 18:40:00,
2013-05-20 13:45:00,66.0,53.9,29.42,SW,223,3.0,3.0,65,0.00,,---,0.04,255.00,VWS V14.00,2013-05-20 18:45:00,
2013-05-20 13:50:00,65.6,53.5,29.43,SE,126,6.0,6.0,65,0.00,,---,0.04,255.00,VWS V14.00,2013-05-20 18:50:00,
2013-05-20 13:55:00,65.6,53.5,29.43,SSE,155,2.0,3.0,65,0.00,,---,0.04,392.00,VWS V14.00,2013-05-20 18:55:00,
2013-05-20 14:00:00,65.6,59.6,29.43,SE,143,1.0,1.0,81,0.00,,---,0.04,385.00,VWS V14.00,2013-05-20 19:00:00,
2013-05-20 14:05:00,65.6,60.0,29.42,SE,131,2.0,2.0,82,0.00,,---,0.04,385.00,VWS V14.00,2013-05-20 19:05:00,
2013-05-20 14:10:00,65.6,60.0,29.42,ESE,103,10.0,10.0,82,0.00,,---,0.04,396.00,VWS V14.00,2013-05-20 19:10:00,
2013-05-20 14:15:00,66.4,59.3,29.42,SSE,167,8.0,8.0,78,0.00,,---,0.04,396.00,VWS V14.00,2013-05-20 19:15:00,
2013-05-20 14:20:00,66.9,59.8,29.42,ESE,110,6.0,7.0,78,0.00,,---,0.04,417.00,VWS V14.00,2013-05-20 19:20:00,
2013-05-20 14:25:00,67.1,58.9,29.42,SSE,148,3.0,8.0,75,0.00,,---,0.04,417.00,VWS V14.00,2013-05-20 19:25:00,
2013-05-20 14:30:00,67.1,58.5,29.42,ESE,121,5.0,5.0,74,0.00,,---,0.04,340.00,VWS V14.00,2013-05-20 19:30:00,
2013-05-20 14:35:00,67.3,58.7,29.42,South,184,1.0,1.0,74,0.00,,---,0.04,382.00,VWS V14.00,2013-05-20 19:35:00,
2013-05-20 14:40:00,67.4,58.8,29.42,SW,220,14.0,14.0,74,0.00,,---,0.04,382.00,VWS V14.00,2013-05-20 19:40:00,
2013-05-20 14:45:00,67.8,58.8,29.42,SSW,202,5.0,5.0,73,0.00,,---,0.04,391.00,VWS V14.00,2013-05-20 19:45:00,
2013-05-20 14:50:00,68.4,59.4,29.42,South,175,4.0,5.0,73,0.00,,---,0.04,167.00,VWS V14.00,2013-05-20 19:50:00,
2013-05-20 14:55:00,68.4,58.2,29.42,SSE,160,5.0,6.0,70,0.00,,---,0.04,148.00,VWS V14.00,2013-05-20 19:55:00,
2013-05-20 15:00:00,68.1,58.7,29.42,SW,216,4.0,4.0,72,0.00,,---,0.04,148.00,VWS V14.00,2013-05-20 20:00:00,
2013-05-20 15:05:00,68.4,59.0,29.43,SSE,147,2.0,2.0,72,0.00,,---,0.04,148.00,VWS V14.00,2013-05-20 20:05:00,
2013-05-20 15:10:00,68.6,59.2,29.43,South,191,8.0,8.0,72,0.00,,---,0.04,148.00,VWS V14.00,2013-05-20 20:10:00,
2013-05-20 15:15:00,68.6,59.2,29.43,SE,127,7.0,7.0,72,0.00,,---,0.04,148.00,VWS V14.00,2013-05-20 20:15:00,
2013-05-20 15:20:00,67.3,58.0,29.44,SSW,195,5.0,5.0,72,0.00,,---,0.07,148.00,VWS V14.00,2013-05-20 20:20:00,
2013-05-20 15:25:00,66.4,57.1,29.44,SSE,160,5.0,5.0,72,0.05,,---,0.07,148.00,VWS V14.00,2013-05-20 20:25:00,
2013-05-20 15:30:00,66.1,61.1,29.44,South,178,2.0,3.0,84,0.04,,---,0.07,148.00,VWS V14.00,2013-05-20 20:30:00,
2013-05-20 15:35:00,66.1,61.1,29.43,South,185,8.0,8.0,84,0.00,,---,0.07,148.00,VWS V14.00,2013-05-20 20:35:00,
2013-05-20 15:40:00,66.4,61.4,29.43,SE,126,4.0,4.0,84,0.00,,---,0.07,148.00,VWS V14.00,2013-05-20 20:40:00,
2013-05-20 15:45:00,66.8,61.8,29.43,South,189,7.0,7.0,84,0.00,,---,0.07,227.00,VWS V14.00,2013-05-20 20:45:00,
2013-05-20 15:50:00,66.8,61.8,29.44,SW,233,0.0,0.0,84,0.00,,---,0.08,227.00,VWS V14.00,2013-05-20 20:50:00,
2013-05-20 15:55:00,66.9,61.9,29.44,SE,136,0.0,11.0,84,0.00,,---,0.08,227.00,VWS V14.00,2013-05-20 20:55:00,
2013-05-20 16:00:00,67.4,62.4,29.44,SE,140,2.0,2.0,84,0.00,,---,0.08,227.00,VWS V14.00,2013-05-20 21:00:00,
2013-05-20 16:05:00,67.6,62.6,29.44,ESE,107,3.0,7.0,84,0.00,,---,0.08,227.00,VWS V14.00,2013-05-20 21:05:00,
2013-05-20 16:10:00,67.8,61.1,29.44,SE,124,2.0,2.0,79,0.00,,---,0.08,227.00,VWS V14.00,2013-05-20 21:10:00,
2013-05-20 16:15:00,68.1,61.3,29.44,ESE,117,2.0,8.0,79,0.00,,---,0.08,227.00,VWS V14.00,2013-05-20 21:15:00,
2013-05-20 16:20:00,68.4,59.8,29.44,South,181,7.0,10.0,74,0.00,,---,0.08,227.00,VWS V14.00,2013-05-20 21:20:00,
2013-05-20 16:25:00,68.4,59.8,29.44,SW,220,9.0,10.0,74,0.00,,---,0.08,227.00,VWS V14.00,2013-05-20 21:25:00,
2013-05-20 16:30:00,68.8,60.2,29.44,ESE,106,2.0,2.0,74,0.00,,---,0.08,227.00,VWS V14.00,2013-05-20 21:30:00,
2013-05-20 16:35:00,68.8,60.2,29.44,NW,306,11.0,11.0,74,0.00,,---,0.08,227.00,VWS V14.00,2013-05-20 21:35:00,
2013-05-20 16:40:00,69.1,57.3,29.44,SSW,198,11.0,11.0,66,0.00,,---,0.08,227.00,VWS V14.00,2013-05-20 21:40:00,
2013-05-20 16:45:00,69.8,57.9,29.44,SE,143,2.0,12.0,66,0.00,,---,0.08,227.00,VWS V14.00,2013-05-20 21:45:00,
2013-05-20 16:50:00,69.9,58.0,29.44,SE,124,3.0,3.0,66,0.00,,---,0.08,227.00,VWS V14.00,2013-05-20 21:50:00,
2013-05-20 16:55:00,69.9,58.0,29.44,SSW,210,5.0,8.0,66,0.00,,---,0.08,227.00,VWS V14.00,2013-05-20 21:55:00,
2013-05-20 17:00:00,70.4,58.5,29.44,SE,136,4.0,5.0,66,0.00,,---,0.08,227.00,VWS V14.00,2013-05-20 22:00:00,
2013-05-20 17:05:00,70.4,58.5,29.45,SSW,206,6.0,6.0,66,0.00,,---,0.08,227.00,VWS V14.00,2013-05-20 22:05:00,
2013-05-20 17:10:00,70.9,56.3,29.45,South,176,3.0,4.0,60,0.00,,---,0.08,227.00,VWS V14.00,2013-05-20 22:10:00,
2013-05-20 17:15:00,70.9,56.3,29.45,ESE,113,3.0,3.0,60,0.00,,---,0.08,227.00,VWS V14.00,2013-05-20 22:15:00,
2013-05-20 17:20:00,71.6,57.0,29.44,SSW,202,5.0,7.0,60,0.00,,---,0.08,572.00,VWS V14.00,2013-05-20 22:20:00,
2013-05-20 17:25:00,71.6,57.0,29.44,South,178,8.0,8.0,60,0.00,,---,0.08,572.00,VWS V14.00,2013-05-20 22:25:00,
2013-05-20 17:30:00,71.1,56.5,29.44,SW,219,11.0,11.0,60,0.00,,---,0.08,572.00,VWS V14.00,2013-05-20 22:30:00,
2013-05-20 17:35:00,71.1,56.5,29.45,SE,138,1.0,1.0,60,0.00,,---,0.08,572.00,VWS V14.00,2013-05-20 22:35:00,
2013-05-20 17:40:00,71.1,55.1,29.45,SSW,213,2.0,2.0,57,0.00,,---,0.08,572.00,VWS V14.00,2013-05-20 22:40:00,
2013-05-20 17:45:00,71.1,55.1,29.45,SW,224,1.0,1.0,57,0.00,,---,0.08,572.00,VWS V14.00,2013-05-20 22:45:00,
2013-05-20 17:50:00,70.8,54.8,29.45,SSE,148,2.0,6.0,57,0.00,,---,0.08,572.00,VWS V14.00,2013-05-20 22:50:00,
2013-05-20 17:55:00,70.9,54.9,29.45,ENE,66,1.0,1.0,57,0.00,,---,0.08,572.00,VWS V14.00,2013-05-20 22:55:00,
2013-05-20 18:00:00,70.9,54.9,29.45,ESE,102,8.0,8.0,57,0.00,,---,0.08,572.00,VWS V14.00,2013-05-20 23:00:00,
2013-05-20 18:05:00,70.6,54.6,29.45,ESE,120,3.0,3.0,57,0.00,,---,0.08,572.00,VWS V14.00,2013-05-20 23:05:00,
2013-05-20 18:10:00,70.6,54.6,29.45,South,176,4.0,4.0,57,0.00,,---,0.08,572.00,VWS V14.00,2013-05-20 23:10:00,
2013-05-20 18:15:00,71.1,55.1,29.45,SSW,192,11.0,11.0,57,0.00,,---,0.08,572.00,VWS V14.00,2013-05-20 23:15:00,
2013-05-20 18:20:00,71.1,55.1,29.45,SE,144,1.0,1.0,57,0.00,,---,0.08,572.00,VWS V14.00,2013-05-20 23:20:00,
2013-05-20 18:25:00,70.9,54.9,29.45,WSW,243,2.0,12.0,57,0.00,,---,0.08,572.00,VWS V14.00,2013-05-20 23:25:00,
2013-05-20 18:30:00,70.9,54.9,29.45,ESE,112,3.0,3.0,57,0.00,,---,0.08,572.00,VWS V14.00,2013-05-20 23:30:00,
2013-05-20 18:35:00,70.8,54.8,29.45,WSW,254,7.0,7.0,57,0.00,,---,0.08,572.00,VWS V14.00,2013-05-20 23:35:00,
2013-05-20 18:40:00,70.8,54.8,29.45,ESE,123,5.0,5.0,57,0.00,,---,0.08,572.00,VWS V14.00,2013-05-20 23:40:00,
2013-05-20 18:45:00,70.8,54.8,29.45,SSW,203,5.0,5.0,57,0.00,,---,0.08,572.00,VWS V14.00,2013-05-20 23:45:00,
2013-05-20 18:50:00,70.6,54.6,29.45,SSE,168,2.0,2.0,57,0.00,,---,0.08,572.00,VWS V14.00,2013-05-20 23:50:00,
2013-05-20 18:55:00,70.4,54.5,29.45,SSE,167,1.0,3.0,57,0.00,,---,0.08,572.00,VWS V14.00,2013-05-20 23:55:00,
2013-05-20 19:00:00,70.4,54.5,29.45,SSE,161,3.0,3.0,57,0.00,,---,0.08,572.00,VWS V14.00,2013-05-21 00:00:00,
2013-05-20 19:05:00,70.3,54.4,29.45,ESE,117,3.0,3.0,57,0.00,,---,0.08,572.00,VWS V14.00,2013-05-21 00:05:00,
2013-05-20 19:10:00,70.1,54.2,29.45,SE,145,3.0,10.0,57,0.00,,---,0.08,572.00,VWS V14.00,2013-05-21 00:10:00,
2013-05-20 19:15:00,70.1,54.2,29.45,SW,219,6.0,6.0,57,0.00,,---,0.08,572.00,VWS V14.00,2013-05-21 00:15:00,
2013-05-20 19:20:00,69.9,54.0,29.46,SSW,209,0.0,0.0,57,0.00,,---,0.08,572.00,VWS V14.00,2013-05-21 00:20:00,
2013-05-20 19:25:00,69.8,53.9,29.46,SE,134,0.0,3.0,57,0.00,,---,0.08,572.00,VWS V14.00,2013-05-21 00:25:00,
2013-05-20 19:30:00,69.6,53.7,29.46,ESE,114,2.0,2.0,57,0.00,,---,0.08,572.00,VWS V14.00,2013-05-21 00:30:00,
2013-05-20 19:35:00,69.6,53.7,29.45,South,174,3.0,3.0,57,0.00,,---,0.08,18.00,VWS V14.00,2013-05-21 00:35:00,
2013-05-20 19:40:00,69.4,53.5,29.45,ESE,116,2.0,2.0,57,0.00,,---,0.08,18.00,VWS V14.00,2013-05-21 00:40:00,
2013-05-20 19:45:00,69.3,53.4,29.45,ESE,110,6.0,7.0,57,0.00,,---,0.08,21.00,VWS V14.00,2013-05-21 00:45:00,
2013-05-20 19:50:00,69.1,55.5,29.46,SE,143,4.0,4.0,62,0.00,,---,0.08,18.00,VWS V14.00,2013-05-21 00:50:00,
2013-05-20 19:55:00,68.9,55.4,29.46,SSE,168,2.0,2.0,62,0.00,,---,0.08,18.00,VWS V14.00,2013-05-21 00:55:00,
2013-05-20 20:00:00,68.9,55.4,29.46,SE,138,1.0,1.0,62,0.00,,---,0.08,18.00,VWS V14.00,2013-05-21 01:00:00,
2013-05-20 20:05:00,68.8,55.3,29.46,ESE,113,0.0,1.0,62,0.00,,---,0.08,11.00,VWS V14.00,2013-05-21 01:05:00,
2013-05-20 20:10:00,68.8,55.3,29.46,ESE,113,0.0,0.0,62,0.00,,---,0.08,11.00,VWS V14.00,2013-05-21 01:10:00,
2013-05-20 20:15:00,68.6,56.0,29.46,SE,137,2.0,3.0,64,0.00,,---,0.08,9.00,VWS V14.00,2013-05-21 01:15:00,
2013-05-20 20:20:00,68.4,55.8,29.46,East,85,7.0,7.0,64,0.00,,---,0.08,0.00,VWS V14.00,2013-05-21 01:20:00,
2013-05-20 20:25:00,68.4,55.8,29.46,ESE,113,2.0,2.0,64,0.00,,---,0.08,0.00,VWS V14.00,2013-05-21 01:25:00,
2013-05-20 20:30:00,68.3,55.7,29.46,ESE,120,3.0,3.0,64,0.00,,---,0.08,0.00,VWS V14.00,2013-05-21 01:30:00,
2013-05-20 20:35:00,68.1,55.5,29.45,SE,128,2.0,2.0,64,0.00,,---,0.08,0.00,VWS V14.00,2013-05-21 01:35:00,
2013-05-20 20:40:00,67.9,55.3,29.45,ESE,120,1.0,5.0,64,0.00,,---,0.08,0.00,VWS V14.00,2013-05-21 01:40:00,
2013-05-20 20:45:00,67.9,55.3,29.45,SE,143,1.0,1.0,64,0.00,,---,0.08,0.00,VWS V14.00,2013-05-21 01:45:00,
2013-05-20 20:50:00,67.8,55.2,29.45,SE,126,2.0,2.0,64,0.00,,---,0.08,0.00,VWS V14.00,2013-05-21 01:50:00,
2013-05-20 20:55:00,67.8,55.2,29.45,ESE,114,2.0,2.0,64,0.00,,---,0.08,0.00,VWS V14.00,2013-05-21 01:55:00,
2013-05-20 21:00:00,67.4,54.8,29.45,ESE,114,2.0,3.0,64,0.00,,---,0.08,0.00,VWS V14.00,2013-05-21 02:00:00,
2013-05-20 21:05:00,67.4,54.8,29.45,ESE,107,3.0,3.0,64,0.00,,---,0.08,0.00,VWS V14.00,2013-05-21 02:05:00,
2013-05-20 21:10:00,67.3,56.0,29.45,ESE,103,6.0,6.0,67,0.00,,---,0.08,0.00,VWS V14.00,2013-05-21 02:10:00,
2013-05-20 21:15:00,67.3,56.0,29.45,ESE,119,2.0,2.0,67,0.00,,---,0.08,0.00,VWS V14.00,2013-05-21 02:15:00,
2013-05-20 21:20:00,67.3,56.0,29.44,ESE,119,2.0,2.0,67,0.00,,---,0.08,0.00,VWS V14.00,2013-05-21 02:20:00,
2013-05-20 21:25:00,67.3,56.0,29.44,SE,128,5.0,5.0,67,0.00,,---,0.08,0.00,VWS V14.00,2013-05-21 02:25:00,
2013-05-20 21:30:00,67.3,56.0,29.44,ESE,110,2.0,5.0,67,0.00,,---,0.08,0.00,VWS V14.00,2013-05-21 02:30:00,
2013-05-20 21:35:00,66.4,55.1,29.45,SE,124,2.0,2.0,67,0.00,,---,0.08,0.00,VWS V14.00,2013-05-21 02:35:00,
2013-05-20 21:40:00,66.3,56.2,29.45,ESE,110,2.0,2.0,70,0.00,,---,0.08,0.00,VWS V14.00,2013-05-21 02:40:00,
2013-05-20 21:45:00,66.3,56.6,29.45,ESE,106,3.0,3.0,71,0.00,,---,0.08,0.00,VWS V14.00,2013-05-21 02:45:00,
2013-05-20 21:50:00,66.3,56.6,29.45,SE,127,3.0,3.0,71,0.00,,---,0.08,0.00,VWS V14.00,2013-05-21 02:50:00,
2013-05-20 21:55:00,66.3,57.0,29.45,ESE,104,3.0,3.0,72,0.00,,---,0.08,0.00,VWS V14.00,2013-05-21 02:55:00,
2013-05-20 22:00:00,66.0,56.7,29.45,SE,124,5.0,5.0,72,0.00,,---,0.08,0.00,VWS V14.00,2013-05-21 03:00:00,
2013-05-20 22:05:00,66.0,56.7,29.45,ESE,102,2.0,3.0,72,0.00,,---,0.08,0.00,VWS V14.00,2013-05-21 03:05:00,
2013-05-20 22:10:00,66.0,56.7,29.45,SE,140,5.0,5.0,72,0.00,,---,0.08,0.00,VWS V14.00,2013-05-21 03:10:00,
2013-05-20 22:15:00,66.0,56.7,29.45,ESE,116,6.0,6.0,72,0.00,,---,0.08,0.00,VWS V14.00,2013-05-21 03:15:00,
2013-05-20 22:20:00,66.1,57.2,29.45,ESE,119,6.0,6.0,73,0.00,,---,0.08,0.00,VWS V14.00,2013-05-21 03:20:00,
2013-05-20 22:25:00,66.3,57.4,29.45,SE,145,3.0,6.0,73,0.00,,---,0.08,0.00,VWS V14.00,2013-05-21 03:25:00,
2013-05-20 22:30:00,66.3,57.4,29.45,SSE,155,3.0,3.0,73,0.00,,---,0.08,0.00,VWS V14.00,2013-05-21 03:30:00,
2013-05-20 22:35:00,66.0,57.1,29.46,SSE,150,1.0,1.0,73,0.00,,---,0.08,0.00,VWS V14.00,2013-05-21 03:35:00,
2013-05-20 22:40:00,65.5,56.6,29.46,South,191,5.0,5.0,73,0.00,,---,0.08,0.00,VWS V14.00,2013-05-21 03:40:00,
2013-05-20 22:45:00,64.8,58.8,29.46,ESE,113,3.0,3.0,81,0.00,,---,0.10,0.00,VWS V14.00,2013-05-21 03:45:00,
2013-05-20 22:50:00,64.3,58.7,29.45,East,99,3.0,4.0,82,0.11,,---,0.11,0.00,VWS V14.00,2013-05-21 03:50:00,
2013-05-20 22:55:00,64.2,58.9,29.45,SSE,147,1.0,1.0,83,0.11,,---,0.11,0.00,VWS V14.00,2013-05-21 03:55:00,
2013-05-20 23:00:00,64.0,58.7,29.45,ESE,103,1.0,1.0,83,0.12,,---,0.11,0.00,VWS V14.00,2013-05-21 04:00:00,
2013-05-20 23:01:00,64.0,58.7,29.45,ESE,103,1.0,1.0,83,0.12,,---,0.11,0.00,VWS V14.00,2013-05-21 04:01:00,
2013-05-20 23:06:00,63.7,58.5,29.45,ESE,103,1.0,1.0,83,0.12,,---,0.14,0.00,VWS V14.00,2013-05-21 04:06:00,
2013-05-20 23:11:00,63.5,58.2,29.45,ESE,103,0.0,0.0,83,0.12,,---,0.14,0.00,VWS V14.00,2013-05-21 04:11:00,
2013-05-20 23:16:00,63.4,58.2,29.45,ESE,112,1.0,2.0,83,0.12,,---,0.16,0.00,VWS V14.00,2013-05-21 04:16:00,
2013-05-20 23:21:00,63.2,58.0,29.44,ESE,104,2.0,2.0,83,0.08,,---,0.16,0.00,VWS V14.00,2013-05-21 04:21:00,
2013-05-20 23:26:00,62.9,57.7,29.44,East,92,2.0,2.0,83,0.38,,---,0.19,0.00,VWS V14.00,2013-05-21 04:26:00,
2013-05-20 23:31:00,62.9,57.7,29.44,ESE,107,3.0,3.0,83,0.14,,---,0.20,0.00,VWS V14.00,2013-05-21 04:31:00,
2013-05-20 23:36:00,61.8,56.6,29.41,East,90,3.0,5.0,83,0.17,,---,0.22,0.00,VWS V14.00,2013-05-21 04:36:00,
2013-05-20 23:41:00,61.3,58.0,29.41,ESE,116,2.0,4.0,89,0.07,,---,0.22,0.00,VWS V14.00,2013-05-21 04:41:00,
2013-05-20 23:46:00,61.3,58.0,29.41,SE,137,2.0,2.0,89,0.06,,---,0.22,0.00,VWS V14.00,2013-05-21 04:46:00,
2013-05-20 23:51:00,61.0,57.7,29.43,SE,124,6.0,6.0,89,0.06,,---,0.22,0.00,VWS V14.00,2013-05-21 04:51:00,
2013-05-20 23:56:00,60.7,57.4,29.43,ENE,75,2.0,2.0,89,0.06,,---,0.23,0.00,VWS V14.00,2013-05-21 04:56:00,